User: anonymous   Login
Location: Hobi?a Gr?di?te
(45.4833°N, 22.7833°E)
Time: 13:31:52
(UTC+00:00)
Language:

Cosmos 1844 Rocket - Orbit

View from above orbital plane
View from above orbital plane
View from above satellite
View from above satellite

Ground track
Ground track

The orbit data is extracted from the following two-line orbital elements,

1 17974U 87041B   24113.92148734  .00000294  00000-0  16868-3 0  9994
2 17974  71.0098  38.4476 0013862 182.1136 245.9616 14.17435667910905
Epoch (UTC): 22 April 2024 22:06:56
Eccentricity: 0.0013862
inclination: 71.0098°
perigee height: 824 km
apogee height: 844 km
right ascension of ascending node: 38.4476°
argument of perigee: 182.1136°
revolutions per day: 14.17435667
mean anomaly at epoch: 245.9616°
orbit number at epoch: 91090

The dashed part of the orbit path shows where the satellite is in the earth's shadow,  

DLR